FENGYUN 1C DEB

Satellite information

Favourite Embed

Satellite Type and Status

DEBRISIN ORBIT

Key statistics

Satellite FENGYUN 1C DEB at a glance.

Uptime

9668

Days in orbit

Revolutions

≈ 14.2

Per day

Orbit

SSO

Sun Synchronous Orbit

Inclination

98.9

Latest

Satellite identification and parameters

Extended collection of information and parameters for FENGYUN 1C DEB.

Object identification

Identified? True

Debris? True

Object name: FENGYUN 1C DEB

International designator: 1999-025KR

Object number (NORAD): 29967

Object ID (CCSDS): 29967

Country: PEOPLES REPUBLIC OF CHINA (PRC)

Current information (Y/N): Y

RCS size: SMALL

Orbital parameters

Period: 101.183 minutes

Inclination: 98.8669 deg

SMA: 7192.79 km

Apoapsis: 870.043 km

Periapsis: 759.267 km

RAAN: 16.97 deg

Eccentricy: 0.00770052

Argument of periapsis: 67.4137 deg

Mean anomaly: 83.1795 deg

Mean motion: 14.23169719 rev/day

Mean motion (dot): 0.00003516 rev/day2

B* drag term: 0.0015277498 1/REarth

Two-line elements (TLE)

Creation date: Oct. 28, 2025, 2:18 a.m.

Reference frame: TEME

Reference center: EARTH

Epoch: Oct. 27, 2025, 5 p.m. UTC

TLE line 0: 0 FENGYUN 1C DEB

TLE line 1: 1 29967U 99025KR 25300.70833859 .00003516 00000-0 15277-2 0 9990

TLE line 2: 2 29967 98.8669 16.9700 0077005 67.4137 83.1795 14.23169719965670

Live tracking on map

Real-time ground track for satellite FENGYUN 1C DEB.

In-orbit conjunctions

A list of the most updated potential collisions computed for object FENGYUN 1C DEB.

Target Orbit TCA Probability of collision Miss distance Type
CZ-6A DEB LEO 2025-03-08 00:57:43 0.000129539 180.0 (m) DEBRIS
FENGYUN 1C DEB SSO 2024-08-06 18:18:36 0.0001123603 202.0 (m) DEBRIS

Associated space launch

Chinese polar orbiting meteorological satellite

FENGYUN 1C DEB was lifted into orbit during the mission ‘Long March 4B | Feng Yun 1C’, on board a Long March 4B space rocket.

The launch took place on May 10, 1999, 1:33 a.m. from Launch Complex 7.

For more information about the launch, click the button.

Launch to space Long March 4B | Feng Yun 1C
Long March 4B | Feng Yun 1C

Agency: N/A

Status: Launch Successful

Launch date: May 10, 1999, 1:33 a.m. UTC

Rocket: Long March 4B

Launch pad: Launch Complex 7

Location: Taiyuan Satellite Launch Center, People's Republic of China

...

Latest news about this satellite

There are no fresh news available about this satellite. Check back as we update our databases every day.


Newsletter sign-up

Weekly statistics, charts and insights to help you stay on top of the space industry.